Wind_Speed
4 4 2 0 2 4 5 6 6 6 5 5 5 5 5 5 5 6 5 5 5 5 5 7 7 8 8 9 9 10 10 8 7 7 7 6 5 5 6 5 7 9 9
3 4 3 2 2 4 6 7 9 10 8 7 7 6 6 6 6 5 7 5 3 3 3 3 5 6 7 8 9 10 10 9 9 9 7 6 6 4 4 3 3 4 8
4 3 2 2 3 5 7 8 9 8 8 7 6 5 5 5 5 5 5 6 5 4 2 2 2 4 5 6 7 8 9 8 9 7 5 5 4 3 1 1 1 4 9
7 3 1 1 4 5 6 7 7 7 6 5 4 4 4 3 4 4 5 5 5 5 5 3 1 1 2 4 5 5 5 6 7 5 5 6 2 1 1 2 2 6 7
9 4 3 1 4 6 7 7 7 6 5 4 3 2 2 2 3 4 4 4 4 5 6 5 4 2 1 2 4 2 3 3 2 2 3 5 4 2 3 4 5 6 8
11 6 6 4 4 8 8 8 7 6 6 4 3 1 1 2 3 4 4 4 4 3 4 4 4 3 2 2 1 1 1 1 2 4 4 4 3 4 4 5 8 8 8
13 10 10 8 7 10 11 10 9 8 7 6 4 4 3 2 3 5 4 3 4 4 3 3 3 3 2 3 2 3 3 3 4 5 4 4 4 4 5 6 7 10 10
16 16 12 12 12 13 13 12 12 10 9 8 7 6 5 4 4 5 6 5 5 6 5 4 4 5 4 2 4 5 7 6 5 6 5 6 6 6 5 6 8 8 9
17 16 17 15 15 17 16 16 15 13 12 11 10 9 9 7 6 6 8 8 8 7 7 6 6 6 6 5 5 7 9 10 9 8 5 7 8 8 8 8 9 8 8
17 18 19 17 17 19 20 19 18 16 15 14 14 12 12 11 9 8 9 10 11 10 9 9 8 9 9 8 8 9 10 11 14 9 8 11 10 10 10 9 9 9 8
17 19 18 21 17 20 22 22 21 20 19 17 17 16 15 14 13 12 11 10 12 12 11 11 11 11 11 11 12 12 11 14 16 10 11 14 12 12 13 12 11 10 10
18 16 19 23 22 19 22 23 24 24 22 21 21 20 19 17 16 16 15 14 13 13 13 13 13 13 14 14 15 14 14 15 17 11 13 14 14 14 14 14 14 13 13
19 19 16 20 24 25 22 22 24 25 26 25 24 24 23 20 20 18 18 17 17 16 14 15 15 15 15 16 16 16 16 17 17 15 14 15 14 14 14 15 16 15 15
24 23 17 19 24 27 26 26 25 28 29 28 27 28 26 25 24 22 21 21 19 19 17 15 17 17 17 17 17 17 17 18 19 16 17 17 17 16 16 16 16 16 16
26 27 23 20 23 27 29 31 30 32 32 32 31 31 29 29 28 27 25 24 23 22 20 18 18 18 19 19 19 18 18 19 20 17 17 19 19 18 17 17 17 18 17
26 29 30 26 23 27 30 32 33 34 35 35 34 35 33 33 33 31 30 28 26 25 23 21 20 20 20 20 20 20 20 20 20 20 18 20 20 19 18 17 17 17 17
27 26 31 35 31 27 30 34 34 34 36 37 38 37 36 37 38 35 34 31 29 28 27 25 23 22 22 22 21 20 21 21 21 20 21 20 20 20 19 19 19 19 19
27 28 27 36 39 34 30 34 38 35 36 36 40 39 39 41 40 39 38 35 33 31 30 28 26 25 24 23 23 22 21 21 22 21 21 22 21 20 20 20 21 21 21
31 30 28 31 39 41 35 34 39 39 36 36 40 40 42 42 43 43 40 39 36 34 33 31 29 27 26 25 24 24 23 21 22 22 21 22 21 22 21 21 23 22 22
21 25 27 29 34 40 44 39 40 41 37 36 37 40 40 42 43 44 43 42 39 36 36 33 31 29 28 26 25 25 24 23 23 23 23 23 22 20 22 23 23 24 24
21 26 25 29 27 34 39 48 42 41 40 39 35 37 39 40 41 43 43 42 40 38 37 35 34 31 29 28 26 26 25 24 24 23 23 24 24 23 22 24 24 25 25
29 30 29 30 32 31 33 43 48 46 44 43 42 40 39 38 37 41 43 42 41 38 38 37 35 33 31 28 28 27 27 26 25 24 24 24 25 25 25 26 26 27 27
31 31 32 32 34 38 38 36 46 51 54 50 48 41 39 39 36 40 42 42 41 39 39 38 36 34 32 30 29 29 28 28 25 24 24 25 26 26 27 27 28 29 30
33 32 30 30 28 29 40 43 37 45 53 52 50 45 43 44 40 38 42 43 42 40 40 38 36 35 34 31 30 29 28 28 27 27 26 27 27 27 28 28 29 30 32
29 34 27 27 28 27 27 43 49 46 47 49 49 46 48 47 46 42 42 42 42 41 40 39 38 34 33 33 31 29 29 28 28 28 27 29 30 29 29 29 30 31 32
37 39 42 39 37 36 34 36 36 46 53 51 49 52 48 49 50 48 45 43 43 41 41 41 38 35 34 33 33 31 29 29 28 28 28 29 30 29 30 30 31 32 32
Wind_Direction
7 21 26 298 149 148 150 133 126 121 120 111 98 89 85 70 58 54 47 44 35 46 52 44 45 47 47 46 44 39 40 50 60 56 54 62 76 97 114 92 59 49 39
344 358 18 24 150 152 160 134 123 119 120 116 109 103 87 73 65 54 54 54 49 37 47 52 37 43 42 40 43 45 47 52 55 61 70 85 91 107 130 101 31 39 23
299 311 352 27 144 134 147 147 139 136 130 127 117 99 81 67 53 39 47 47 53 59 56 56 53 53 50 48 49 47 48 51 55 49 65 76 86 106 107 297 354 360 0
284 280 325 227 170 161 152 157 158 153 148 137 120 100 80 58 49 33 34 42 44 53 60 55 63 70 74 75 60 51 52 45 53 43 45 66 69 60 297 319 348 5 355
282 274 281 263 205 195 174 168 169 176 168 161 138 112 74 27 28 23 27 18 18 39 48 51 46 51 28 90 85 39 43 40 49 340 27 40 39 352 312 323 315 328 335
276 268 271 277 234 221 197 192 196 204 191 192 179 180 262 352 353 6 19 359 347 12 39 40 44 46 29 11 13 260 281 304 310 312 344 2 346 327 311 305 308 312 323
275 263 264 269 253 232 217 209 215 219 215 216 218 226 262 300 328 341 355 344 325 330 342 359 353 3 18 38 342 306 300 293 298 303 328 326 326 310 308 314 329 332 330
281 265 254 263 250 243 230 224 228 228 228 230 235 240 253 283 313 332 337 335 313 310 314 319 319 319 321 337 289 292 294 296 296 297 310 307 316 320 312 303 301 321 341
285 270 260 251 245 245 240 234 236 236 239 238 242 250 254 267 293 318 326 329 315 305 300 299 301 304 309 311 297 290 290 290 284 277 299 293 302 313 311 309 310 311 323
287 277 269 246 242 243 244 242 240 242 243 245 248 251 258 264 274 291 308 318 315 303 297 293 289 288 295 303 300 291 287 286 282 289 293 279 286 292 294 297 305 309 307
291 283 271 262 235 243 243 242 241 244 244 246 251 256 257 264 270 280 290 303 310 304 292 288 287 282 284 294 298 295 295 290 286 298 279 279 277 278 281 286 291 298 303
294 288 276 269 257 246 246 244 245 245 247 246 249 254 260 263 268 276 288 298 307 305 293 284 282 281 283 289 294 296 296 295 296 305 283 280 278 275 274 276 280 285 290
290 287 286 278 274 264 255 248 250 250 251 251 251 255 260 264 268 273 280 289 300 305 300 286 281 278 278 283 287 290 293 294 296 302 291 283 280 276 274 273 273 276 280
288 289 289 285 276 272 269 258 257 254 254 255 254 255 259 262 266 269 274 281 286 292 296 288 278 278 277 281 283 286 289 291 293 296 293 292 287 282 278 275 273 272 273
276 283 283 273 274 274 273 269 263 262 258 258 257 258 259 261 264 268 272 277 283 288 291 290 281 275 274 279 281 284 285 289 293 293 291 290 289 287 283 278 275 274 273
270 274 281 276 267 273 275 274 270 266 264 261 260 260 261 261 263 265 269 273 278 283 286 287 284 276 271 271 276 282 285 287 289 292 290 288 287 284 283 279 276 275 274
271 266 272 279 276 268 274 276 273 270 267 265 263 262 261 261 263 264 266 270 274 278 281 283 283 278 273 271 272 275 281 284 286 289 289 285 283 281 279 279 276 276 275
288 261 250 267 278 280 273 274 275 272 270 268 267 264 262 262 262 263 265 267 269 274 278 279 280 279 274 271 273 275 278 281 285 288 287 286 283 277 276 276 274 274 274
285 284 258 252 266 277 280 277 273 274 272 271 269 268 264 263 263 264 264 266 268 271 275 276 277 277 275 271 271 274 277 279 281 286 286 285 284 283 278 274 275 274 276
248 292 290 259 260 269 276 274 272 273 275 274 273 273 270 267 264 265 265 267 268 268 271 274 274 275 275 271 269 272 276 278 282 286 288 287 283 276 276 278 276 277 278
234 228 228 227 246 259 271 273 270 272 274 273 273 273 271 268 266 266 266 267 267 266 268 270 271 271 272 271 268 270 273 276 279 285 289 290 288 284 277 273 274 275 277
229 228 233 229 229 228 250 270 273 273 271 270 267 266 269 269 266 266 266 266 266 264 265 268 269 269 270 269 268 268 270 273 277 284 286 287 287 286 282 279 278 276 276
235 239 246 258 265 248 236 246 265 268 268 265 266 267 268 269 267 266 267 267 266 264 264 265 267 267 268 268 265 265 269 274 278 277 283 286 287 284 283 283 282 282 281
244 245 251 254 252 248 240 239 245 265 264 269 267 264 260 261 262 262 265 265 266 264 262 264 264 266 268 268 262 263 266 272 276 281 284 285 284 284 283 284 283 282 282
262 257 263 269 266 262 256 241 245 249 262 267 270 266 257 255 256 256 259 262 263 263 261 261 263 264 266 268 263 257 262 268 271 277 283 289 289 288 287 285 284 284 285
286 287 278 279 280 277 270 263 256 255 255 260 265 269 264 256 251 252 253 257 260 260 259 260 262 263 264 266 263 258 260 264 267 274 281 283 284 285 286 287 287 286 287
Height
3188 3187 3187 3186 3185 3186 3186 3185 3185 3185 3185 3185 3184 3184 3183 3184 3184 3183 3183 3183 3183 3183 3183 3182 3182 3182 3182 3182 3182 3182 3181 3181 3181 3182 3182 3182 3182 3183 3184 3184 3185 3185 3184
3188 3188 3187 3187 3186 3186 3186 3186 3186 3186 3186 3186 3185 3185 3184 3185 3185 3184 3184 3183 3183 3183 3184 3183 3183 3183 3183 3183 3183 3183 3182 3182 3181 3182 3182 3182 3183 3184 3185 3185 3185 3185 3185
3188 3188 3187 3187 3187 3187 3187 3187 3188 3187 3187 3187 3187 3186 3186 3186 3186 3186 3185 3185 3184 3183 3183 3184 3184 3184 3184 3184 3184 3184 3183 3182 3183 3183 3183 3183 3184 3185 3186 3186 3186 3186 3185
3187 3188 3188 3188 3188 3188 3188 3188 3188 3188 3188 3188 3188 3188 3188 3187 3187 3187 3186 3186 3185 3184 3184 3184 3184 3184 3184 3184 3184 3184 3184 3183 3184 3183 3184 3184 3185 3185 3186 3186 3186 3186 3185
3187 3188 3189 3188 3188 3188 3188 3189 3189 3189 3189 3189 3189 3189 3189 3189 3188 3187 3187 3187 3187 3186 3185 3185 3185 3185 3184 3184 3185 3185 3184 3184 3184 3184 3183 3184 3185 3185 3186 3186 3186 3187 3186
3187 3188 3188 3188 3188 3188 3188 3189 3189 3190 3190 3190 3190 3190 3190 3190 3189 3188 3188 3188 3188 3187 3186 3186 3186 3185 3185 3186 3185 3184 3183 3184 3184 3184 3184 3184 3185 3185 3185 3186 3185 3186 3186
3185 3186 3187 3187 3188 3187 3188 3188 3189 3190 3190 3190 3191 3191 3190 3190 3190 3189 3188 3188 3188 3188 3188 3187 3186 3186 3186 3186 3186 3185 3184 3184 3183 3183 3183 3183 3183 3183 3184 3184 3185 3185 3185
3182 3183 3186 3185 3186 3186 3187 3188 3188 3189 3189 3190 3190 3190 3190 3190 3190 3189 3189 3188 3188 3187 3188 3187 3186 3186 3186 3186 3186 3185 3185 3184 3184 3183 3182 3182 3182 3182 3183 3183 3183 3183 3183
3180 3180 3181 3183 3183 3184 3185 3186 3187 3187 3188 3188 3189 3189 3189 3189 3189 3189 3188 3187 3187 3187 3187 3186 3186 3186 3186 3185 3185 3184 3183 3183 3183 3183 3183 3182 3182 3182 3182 3182 3182 3182 3182
3178 3177 3177 3180 3180 3181 3182 3183 3184 3185 3186 3186 3187 3187 3187 3188 3188 3188 3188 3187 3186 3185 3185 3185 3185 3184 3184 3184 3183 3183 3182 3181 3180 3183 3183 3182 3181 3181 3180 3180 3181 3181 3180
3175 3175 3175 3174 3177 3177 3178 3180 3181 3182 3183 3184 3185 3185 3186 3186 3186 3186 3187 3186 3185 3184 3183 3183 3183 3183 3183 3182 3181 3181 3180 3179 3176 3180 3180 3179 3179 3179 3179 3179 3179 3179 3179
3173 3173 3172 3170 3172 3174 3175 3177 3178 3179 3180 3181 3182 3182 3183 3184 3184 3184 3184 3184 3183 3183 3182 3181 3181 3181 3180 3180 3179 3178 3178 3177 3175 3178 3176 3176 3176 3177 3177 3177 3177 3177 3177
3170 3169 3171 3170 3168 3169 3172 3175 3175 3176 3177 3178 3179 3179 3180 3181 3181 3182 3182 3181 3181 3180 3180 3179 3179 3178 3178 3178 3177 3176 3175 3174 3173 3175 3174 3173 3173 3173 3174 3174 3174 3174 3175
3167 3166 3169 3169 3167 3166 3167 3170 3170 3172 3172 3173 3175 3175 3176 3177 3177 3178 3179 3179 3179 3178 3177 3177 3176 3176 3175 3175 3175 3174 3173 3172 3170 3172 3171 3170 3170 3170 3170 3170 3171 3171 3172
3164 3163 3164 3165 3164 3163 3163 3163 3166 3166 3168 3169 3170 3170 3172 3173 3173 3173 3174 3174 3174 3174 3174 3173 3173 3173 3172 3172 3171 3171 3170 3169 3167 3169 3168 3167 3167 3167 3167 3167 3167 3167 3168
3162 3160 3158 3160 3162 3159 3159 3158 3160 3160 3161 3163 3165 3165 3166 3167 3167 3168 3169 3170 3170 3170 3170 3169 3169 3168 3169 3169 3168 3167 3166 3166 3165 3164 3165 3163 3163 3163 3163 3163 3163 3163 3164
3157 3157 3154 3152 3154 3156 3154 3153 3154 3154 3155 3156 3158 3160 3161 3161 3161 3163 3163 3164 3165 3165 3165 3165 3164 3164 3164 3164 3164 3164 3163 3162 3162 3161 3160 3160 3159 3159 3159 3159 3159 3159 3160
3153 3153 3155 3151 3147 3149 3151 3148 3145 3148 3149 3150 3150 3153 3154 3154 3155 3156 3157 3158 3159 3160 3160 3160 3160 3159 3159 3159 3159 3159 3159 3159 3158 3157 3156 3155 3155 3155 3155 3155 3155 3155 3155
3146 3147 3149 3149 3144 3142 3143 3143 3139 3140 3142 3144 3143 3146 3147 3148 3149 3149 3151 3151 3153 3154 3154 3154 3154 3154 3154 3154 3153 3153 3153 3154 3153 3152 3152 3151 3150 3150 3150 3151 3150 3150 3150
3138 3144 3143 3144 3141 3137 3135 3135 3132 3131 3133 3135 3137 3137 3140 3141 3142 3142 3143 3144 3146 3147 3147 3147 3148 3148 3148 3148 3148 3148 3148 3148 3148 3147 3146 3146 3146 3146 3146 3145 3145 3144 3145
3129 3128 3127 3126 3136 3135 3128 3126 3126 3124 3125 3125 3128 3129 3130 3132 3135 3135 3136 3136 3139 3140 3140 3141 3141 3142 3142 3142 3142 3141 3142 3142 3142 3142 3141 3140 3139 3139 3140 3139 3139 3139 3139
3122 3120 3119 3119 3120 3120 3123 3119 3117 3117 3116 3116 3117 3119 3120 3123 3127 3127 3127 3128 3130 3132 3133 3134 3134 3135 3135 3136 3135 3135 3135 3137 3137 3136 3136 3135 3134 3133 3132 3132 3132 3132 3132
3115 3115 3115 3116 3116 3114 3114 3109 3109 3108 3105 3104 3106 3112 3113 3113 3117 3119 3119 3120 3122 3124 3125 3127 3127 3128 3128 3129 3129 3129 3128 3129 3130 3130 3129 3128 3128 3126 3125 3125 3124 3124 3124
3107 3106 3105 3105 3104 3105 3105 3102 3097 3097 3095 3094 3096 3100 3103 3103 3105 3109 3111 3112 3113 3116 3117 3119 3120 3121 3121 3122 3122 3122 3121 3122 3122 3122 3122 3122 3122 3120 3118 3118 3117 3116 3115
3100 3098 3098 3097 3096 3096 3095 3095 3092 3085 3086 3086 3084 3085 3088 3092 3093 3098 3100 3103 3105 3107 3109 3111 3112 3114 3113 3113 3115 3115 3115 3115 3116 3116 3115 3114 3114 3112 3112 3111 3110 3109 3107
3093 3090 3087 3086 3085 3086 3085 3084 3082 3081 3076 3074 3075 3072 3074 3078 3081 3084 3090 3093 3096 3099 3100 3102 3104 3106 3106 3106 3106 3107 3109 3109 3109 3109 3109 3108 3108 3107 3104 3104 3102 3100 3099